Cozumel (Civ/Mil, Mexico

7:17 PM on December 09, 2016 (GMT +0000)
Cozumel International

Weather History for MMCZ - May, 2014

Change the Weather History Date:

Saturday, May 10, 2014

  Actual Average Record
Temperature  
Mean Temperature 80 °F -  
Max Temperature 86 °F 88 °F 93 °F (1999)
Min Temperature 73 °F 74 °F 64 °F (2011)
Cooling Degree Days 14    
Growing Degree Days 30 (Base 50)    
Moisture  
Dew Point 74 °F    
Average Humidity 84    
Maximum Humidity 100    
Minimum Humidity 66    
Precipitation  
Precipitation 0.00 in - - ()
Sea Level Pressure  
Sea Level Pressure 29.93 in    
Wind  
Wind Speed 11 mph ()    
Max Wind Speed 22 mph    
Max Gust Speed -    
Visibility 7.5 miles    
Events      
Averages and records for this station are not official NWS values.
T = Trace of Precipitation, MM = Missing Value Source: Averaged Metar Reports

Daily Weather History Graph

Daily Weather History Graph

Search for Another Location

Airport or City:

Trip Planner

Search our weather history database for the weather conditions in past years. The results will help you decide how hot, cold, wet, or windy it might be!

Date:

Astronomy

May. 10, 2014 Rise Set
Actual Time 6:12 AM CDT 7:15 PM CDT
Civil Twilight 5:49 AM CDT 7:39 PM CDT
Nautical Twilight 5:21 AM CDT 8:06 PM CDT
Astronomical Twilight 4:53 AM CDT 8:35 PM CDT
Moon 3:41 PM CDT (5/10) 3:11 AM CDT (5/10)
Length of Visible Light 13h 49m
Length of Day
13h 02m
Waxing Gibbous, 82% of the Moon is Illuminated
May 10
Waxing Gibbous
May 14
Full
May 21
Last Quarter
May 28
New
Jun 5
First Quarter

Hourly Weather History & Observations

Time (CDT) Temp. Heat Index Dew Point Humidity Pressure Visibility Wind Dir Wind Speed Gust Speed Precip Events Conditions
12:47 AM 73.4 °F - 73.4 °F 100% 29.92 in 7.0 mi ESE 6.9 mph - N/A   Scattered Clouds
2:04 AM 75.2 °F - 73.4 °F 94% 29.91 in 7.0 mi ESE 8.1 mph - N/A   Scattered Clouds
2:40 AM 75.2 °F - 73.4 °F 94% 29.90 in 7.0 mi ESE 10.4 mph - N/A   Scattered Clouds
3:40 AM 75.2 °F - 73.4 °F 94% 29.92 in 7.0 mi ESE 11.5 mph - N/A   Scattered Clouds
4:40 AM 75.2 °F - 73.4 °F 94% 29.89 in 7.0 mi SE 9.2 mph - N/A   Scattered Clouds
5:40 AM 75.2 °F - 73.4 °F 94% 29.90 in 7.0 mi SE 12.7 mph - N/A   Scattered Clouds
6:48 AM 77.0 °F - 73.4 °F 89% 29.89 in 7.0 mi SE 10.4 mph - N/A   Scattered Clouds
7:43 AM 77.0 °F - 75.2 °F 94% 29.94 in 8.0 mi SE 18.4 mph - N/A   Mostly Cloudy
8:41 AM 80.6 °F 86.2 °F 75.2 °F 84% 29.96 in 8.0 mi ESE 21.9 mph - N/A   Scattered Clouds
9:42 AM 80.6 °F 85.4 °F 73.4 °F 79% 30.01 in 8.0 mi SE 10.4 mph - N/A   Mostly Cloudy
10:40 AM 80.6 °F 85.4 °F 73.4 °F 79% 29.98 in 8.0 mi SE 16.1 mph - N/A   Mostly Cloudy
11:45 AM 82.4 °F 88.2 °F 73.4 °F 74% 29.97 in 8.0 mi SE 15.0 mph - N/A   Mostly Cloudy
12:45 PM 84.2 °F 90.9 °F 73.4 °F 70% 29.92 in 8.0 mi SE 15.0 mph - N/A   Mostly Cloudy
1:53 PM 86.0 °F 93.4 °F 73.4 °F 66% 29.93 in 8.0 mi SE 16.1 mph - N/A   Mostly Cloudy
2:42 PM 84.2 °F 90.9 °F 73.4 °F 70% 29.92 in 8.0 mi SE 16.1 mph - N/A   Mostly Cloudy
3:47 PM 82.4 °F 89.5 °F 75.2 °F 79% 29.94 in 8.0 mi SE 17.3 mph - N/A   Scattered Clouds
4:47 PM 82.4 °F 88.2 °F 73.4 °F 74% 29.90 in 8.0 mi SE 17.3 mph - N/A   Scattered Clouds
5:49 PM 82.4 °F 88.2 °F 73.4 °F 74% 29.90 in 8.0 mi SE 13.8 mph - N/A   Scattered Clouds
6:44 PM 78.8 °F - 73.4 °F 83% 29.88 in 8.0 mi SE 13.8 mph - N/A   Scattered Clouds
7:55 PM 78.8 °F - 73.4 °F 83% 29.90 in 7.0 mi SE 11.5 mph - N/A   Scattered Clouds
8:44 PM 77.0 °F - 73.4 °F 89% 29.91 in 8.0 mi ESE 13.8 mph - N/A   Scattered Clouds
9:43 PM 77.0 °F - 73.4 °F 89% 29.96 in 7.0 mi SE 13.8 mph - N/A   Scattered Clouds
10:46 PM 77.0 °F - 73.4 °F 89% 29.95 in 7.0 mi SE 11.5 mph - N/A   Scattered Clouds
11:45 PM 77.0 °F - 73.4 °F 89% 29.95 in 7.0 mi SE 9.2 mph - N/A   Scattered Clouds